Cordova, AK

9:57 PM AKDT on May 26, 2018 (GMT -0800)
Cordova-Smith

Weather History for PACV - February, 2012

Change the Weather History Date:

Wednesday, February 22, 2012

  Actual Average Record
Temperature  
Mean Temperature 28 °F -  
Max Temperature 35 °F 36 °F 47 °F (1983)
Min Temperature 21 °F 20 °F -6 °F (1956)
Degree Days  
Heating Degree Days 37    
Moisture  
Dew Point 28 °F    
Average Humidity 92    
Maximum Humidity 100    
Minimum Humidity 72    
Precipitation  
Precipitation 0.05 in - - ()
Snow  
Snow 0.00 in - - ()
Snow Depth 33.00 in    
Sea Level Pressure  
Sea Level Pressure 29.76 in    
Wind  
Wind Speed 2 mph (ESE)    
Max Wind Speed 7 mph    
Max Gust Speed -    
Visibility 9 miles    
Events Snow    
Averages and records for this station are not official NWS values.
T = Trace of Precipitation, MM = Missing Value Source: NWS Daily Summary

Daily Weather History Graph

Daily Weather History Graph

Search for Another Location

Airport or City:

Astronomy

Feb. 22, 2012 Rise Set
Actual Time 8:02 AM AKST 5:49 PM AKST
Civil Twilight 7:19 AM AKST 6:32 PM AKST
Nautical Twilight 6:30 AM AKST 7:21 PM AKST
Astronomical Twilight 5:41 AM AKST 8:11 PM AKST
Moon 7:37 AM AKST (2/22) 7:41 PM AKST (2/22)
Length of Visible Light 11h 13m
Length of Day
9h 46m
New Moon, 1% of the Moon is Illuminated
Feb 22
New Moon
Feb 29
First Quarter
Mar 8
Full
Mar 14
Last Quarter
Mar 22
New

Hourly Weather History & Observations

Time (AKST) Temp. Windchill Dew Point Humidity Pressure Visibility Wind Dir Wind Speed Gust Speed Precip Events Conditions
12:53 AM 33.1 °F - 30.9 °F 92% 29.52 in 10.0 mi Calm Calm - N/A   Overcast
1:53 AM 30.9 °F - 30.0 °F 96% 29.55 in 8.0 mi Calm Calm - N/A   Mostly Cloudy
2:53 AM 30.0 °F 26.5 °F 28.9 °F 96% 29.58 in 8.0 mi East 3.5 mph - N/A   Mostly Cloudy
3:53 AM 32.0 °F - 30.0 °F 92% 29.60 in 10.0 mi Calm Calm - N/A   Overcast
4:03 AM 32.0 °F 27.5 °F 30.2 °F 93% 29.60 in 1.8 mi NNE 4.6 mph - 0.02 in Snow Light Snow
4:12 AM 32.0 °F 28.7 °F 30.2 °F 93% 29.60 in 3.0 mi NNE 3.5 mph - 0.04 in Snow Light Snow
4:46 AM 32.0 °F 27.5 °F 30.2 °F 93% 29.61 in 10.0 mi NNE 4.6 mph - 0.04 in   Mostly Cloudy
4:53 AM 32.0 °F 28.7 °F 30.0 °F 92% 29.62 in 10.0 mi NNE 3.5 mph - 0.04 in   Mostly Cloudy
5:10 AM 30.2 °F - 30.2 °F 100% 29.62 in 10.0 mi Calm Calm - N/A   Mostly Cloudy
5:53 AM 30.9 °F - 28.9 °F 92% 29.64 in 10.0 mi Calm Calm - N/A   Mostly Cloudy
6:10 AM 30.2 °F - 28.4 °F 93% 29.64 in 10.0 mi Calm Calm - N/A   Overcast
6:23 AM 30.2 °F - 30.2 °F 100% 29.64 in 10.0 mi Calm Calm - N/A   Overcast
6:37 AM 30.2 °F - 28.4 °F 93% 29.65 in 10.0 mi Calm Calm - N/A   Overcast
6:53 AM 30.9 °F - 30.0 °F 96% 29.66 in 10.0 mi Calm Calm - N/A   Overcast
7:53 AM 30.9 °F 27.5 °F 28.9 °F 92% 29.69 in 10.0 mi West 3.5 mph - N/A   Mostly Cloudy
8:00 AM 30.2 °F 26.7 °F 28.4 °F 93% 29.69 in 10.0 mi WNW 3.5 mph - N/A   Overcast
8:22 AM 32.0 °F 27.5 °F 30.2 °F 93% 29.70 in 1.0 mi WSW 4.6 mph - 0.00 in Snow Light Snow
8:44 AM 32.0 °F 27.5 °F 30.2 °F 93% 29.71 in 6.0 mi SW 4.6 mph - 0.01 in Snow Light Snow
8:53 AM 32.0 °F 27.5 °F 30.9 °F 96% 29.72 in 6.0 mi WSW 4.6 mph - 0.01 in Snow Light Snow
9:17 AM 32.0 °F 28.7 °F 30.2 °F 93% 29.73 in 10.0 mi SSW 3.5 mph - 0.00 in   Overcast
9:50 AM 32.0 °F 28.7 °F 28.4 °F 87% 29.75 in 10.0 mi SSE 3.5 mph - 0.00 in   Mostly Cloudy
9:53 AM 32.0 °F 28.7 °F 28.9 °F 88% 29.75 in 10.0 mi South 3.5 mph - 0.00 in   Mostly Cloudy
10:53 AM 32.0 °F 28.7 °F 30.0 °F 92% 29.78 in 10.0 mi ENE 3.5 mph - N/A   Mostly Cloudy
11:53 AM 34.0 °F - 30.9 °F 89% 29.81 in 10.0 mi Calm Calm - N/A   Mostly Cloudy
12:53 PM 35.1 °F - 27.0 °F 72% 29.84 in 10.0 mi Calm Calm - N/A   Mostly Cloudy
1:53 PM 32.0 °F 25.6 °F 28.0 °F 85% 29.86 in 10.0 mi SE 6.9 mph - N/A   Mostly Cloudy
2:53 PM 30.9 °F 26.2 °F 28.0 °F 89% 29.88 in 10.0 mi SE 4.6 mph - N/A   Mostly Cloudy
3:53 PM 32.0 °F - 28.0 °F 85% 29.90 in 10.0 mi Calm Calm - N/A   Mostly Cloudy
4:53 PM 30.9 °F - 30.0 °F 96% 29.92 in 10.0 mi Calm Calm - N/A   Mostly Cloudy
5:09 PM 30.2 °F - 28.4 °F 93% 29.92 in 10.0 mi Calm Calm - N/A   Scattered Clouds
5:53 PM 30.0 °F - 28.0 °F 92% 29.94 in 8.0 mi Calm Calm - N/A   Scattered Clouds
6:53 PM 27.0 °F - 25.0 °F 92% 29.96 in 10.0 mi Calm Calm - N/A   Scattered Clouds
7:53 PM 24.1 °F - 23.0 °F 96% 29.98 in 10.0 mi Calm Calm - N/A   Scattered Clouds
8:53 PM 24.1 °F - 21.0 °F 88% 30.00 in 10.0 mi Calm Calm - N/A   Scattered Clouds
9:53 PM 21.9 °F - 19.0 °F 89% 30.01 in 10.0 mi Calm Calm - N/A   Partly Cloudy
10:53 PM 23.0 °F 18.4 °F 21.0 °F 92% 30.03 in 10.0 mi North 3.5 mph - N/A   Scattered Clouds
11:53 PM 21.0 °F - 18.0 °F 88% 30.04 in 10.0 mi Calm Calm - N/A   Scattered Clouds